WC1H Weather Reports


time (UTC)temp
F
wind
direction
speed
knots
gust
knots
rain 1hr
in
rain 24hr
in
rain mn
in
humidity
%
barometer
mb
20260505110713 56 150 0.0 0.0 0.00 0.00 0.00 63 1009.1
20260505110209 56 146 0.0 0.0 0.00 0.00 0.00 63 1009.2
20260505102203 53 195 0.0 0.9 0.00 0.00 0.00 59 1009.3
20260505101700 53 134 0.0 0.0 0.00 0.00 0.00 58 1009.2
20260505101159 53 143 0.0 0.0 0.00 0.00 0.00 58 1009.3
20260505100700 53 272 0.0 0.0 0.00 0.00 0.00 57 1009.3
20260505100200 53 206 0.0 0.0 0.00 0.00 0.00 58 1009.2
20260505095659 53 101 0.0 0.0 0.00 0.00 0.00 58 1009.2
20260505095159 53 82 0.0 0.0 0.00 0.00 0.00 59 1009.2
20260505094700 53 82 0.0 0.0 0.00 0.00 0.00 59 1009.1
20260505094203 53 79 0.0 0.0 0.00 0.00 0.00 58 1009.2
20260505094159 53 79 0.0 0.0 0.00 0.00 0.00 59 1009.2
20260505093204 52 79 0.0 0.0 0.00 0.00 0.00 56 1009.2
20260505093200 52 79 0.0 0.0 0.00 0.00 0.00 57 1009.2
20260505092803 51 79 0.0 0.0 0.00 0.00 0.00 55 1009.3
20260505091704 51 79 0.0 0.0 0.00 0.00 0.00 59 1009.4
20260505091700 51 79 0.0 0.0 0.00 0.00 0.00 56 1009.3
20260505090659 51 79 0.0 0.0 0.00 0.00 0.00 58 1009.4
20260505090200 51 79 0.0 0.0 0.00 0.00 0.00 59 1009.4
20260505085659 52 79 0.0 0.0 0.00 0.00 0.00 59 1009.4
20260505085159 52 79 0.0 0.0 0.00 0.00 0.00 60 1009.5
20260505084659 52 79 0.0 0.0 0.00 0.00 0.00 60 1009.5
20260505084159 52 79 0.0 0.0 0.00 0.00 0.00 61 1009.6
20260505083659 52 79 0.0 0.0 0.00 0.00 0.00 61 1009.4
20260505083159 52 79 0.0 0.0 0.00 0.00 0.00 61 1009.4
20260505082700 52 78 0.0 0.0 0.00 0.00 0.00 62 1009.4
20260505082200 52 78 0.0 0.0 0.00 0.00 0.00 62 1009.5
20260505081700 52 78 0.0 0.0 0.00 0.00 0.00 62 1009.5
20260505081158 52 78 0.0 0.0 0.00 0.00 0.00 62 1009.6
20260505080657 52 78 0.0 0.0 0.00 0.00 0.00 62 1009.6
20260505080155 52 78 0.0 0.0 0.00 0.00 0.00 63 1009.5
20260505075659 52 78 0.0 0.0 0.00 0.00 0.00 62 1009.6
20260505075655 52 78 0.0 0.0 0.00 0.00 0.00 62 1009.6
20260505074652 52 78 0.0 0.0 0.00 0.00 0.00 62 1009.6
20260505074151 52 78 0.0 0.0 0.00 0.00 0.00 63 1009.6
20260505073650 52 78 0.0 0.0 0.00 0.00 0.00 63 1009.6
20260505073147 52 78 0.0 0.0 0.00 0.00 0.00 65 1009.6
20260505072644 52 78 0.0 0.0 0.00 0.00 0.00 64 1009.7
20260505072143 53 78 0.0 0.0 0.00 0.00 0.00 65 1009.7
20260505071644 53 78 0.0 0.0 0.00 0.00 0.00 65 1009.7
20260505071143 53 170 0.0 0.0 0.00 0.00 0.00 65 1009.7
20260505070641 53 171 0.0 0.0 0.00 0.00 0.00 66 1009.7
20260505070145 53 150 0.0 0.0 0.00 0.00 0.00 66 1009.8
20260505070141 53 170 0.0 0.0 0.00 0.00 0.00 66 1009.7
20260505065140 53 134 0.0 0.0 0.00 0.00 0.00 66 1009.8
20260505064640 53 134 0.0 0.0 0.00 0.00 0.00 66 1009.7
20260505064139 53 133 0.0 0.0 0.00 0.00 0.00 66 1009.7
20260505063638 53 120 0.0 0.0 0.00 0.00 0.00 67 1009.7
20260505063141 54 108 0.0 0.0 0.00 0.00 0.00 67 1009.8
20260505063137 53 120 0.0 0.0 0.00 0.00 0.00 67 1009.7
20260505062137 54 108 0.0 0.0 0.00 0.00 0.00 67 1009.8
20260505061636 54 108 0.0 0.0 0.00 0.00 0.00 67 1009.8
20260505061135 55 110 0.0 0.0 0.00 0.00 0.00 67 1009.8
20260505060635 55 117 0.0 1.7 0.00 0.00 0.00 67 1009.8
20260505060135 55 240 0.0 1.7 0.00 0.00 0.00 67 1009.8
20260505055640 55 135 0.0 0.0 0.00 0.00 0.00 67 1009.8
20260505055635 55 153 0.0 0.0 0.00 0.00 0.00 67 1009.7
20260505055239 55 135 0.0 0.0 0.00 0.00 0.00 66 1009.8
20260505054739 55 135 0.0 0.0 0.00 0.00 0.00 66 1009.7
20260505053635 56 135 0.0 0.9 0.00 0.00 0.00 66 1009.7
20260505053135 56 135 0.0 0.9 0.00 0.00 0.00 66 1009.7
20260505052634 56 117 0.0 0.9 0.00 0.00 0.00 65 1009.6
20260505052133 56 96 0.0 0.0 0.00 0.00 0.00 65 1009.6
20260505051637 56 121 0.0 0.0 0.00 0.00 0.00 65 1009.6
20260505051633 56 104 0.0 0.0 0.00 0.00 0.00 65 1009.7
20260505050631 56 246 0.0 0.0 0.00 0.00 0.00 65 1009.7
20260505050133 56 149 0.0 0.0 0.00 0.00 0.00 65 1009.9
20260505050129 56 149 0.0 0.0 0.00 0.00 0.00 65 1009.8
20260505041625 56 120 0.0 0.0 0.00 0.00 0.00 63 1009.8
20260505041125 56 264 0.0 0.0 0.00 0.00 0.00 63 1009.8
20260505040625 57 123 0.0 0.0 0.00 0.00 0.00 62 1009.8
20260505040128 57 257 0.0 0.0 0.00 0.00 0.00 62 1009.7
20260505040124 57 75 0.0 0.0 0.00 0.00 0.00 62 1009.7
20260505035121 57 294 0.0 0.0 0.00 0.00 0.00 61 1009.6
20260505034621 57 110 0.0 0.0 0.00 0.00 0.00 61 1009.7
20260505034121 57 156 0.0 0.0 0.00 0.00 0.00 60 1009.7
20260505033619 58 141 0.0 0.0 0.00 0.00 0.00 60 1009.7
20260505033119 58 98 0.0 0.0 0.00 0.00 0.00 59 1009.5
20260505032620 58 105 0.0 0.0 0.00 0.00 0.00 58 1009.6
20260505032117 58 128 0.0 0.0 0.00 0.00 0.00 58 1009.6
20260505031617 58 275 0.0 0.0 0.00 0.00 0.00 57 1009.7
20260505031118 58 159 0.0 0.0 0.00 0.00 0.00 57 1009.6
20260505030620 58 108 0.0 0.0 0.00 0.00 0.00 57 1009.7
20260505030616 58 327 0.0 0.0 0.00 0.00 0.00 56 1009.7
20260505025615 58 223 0.0 0.0 0.00 0.00 0.00 56 1009.6
20260505025115 58 211 0.0 0.0 0.00 0.00 0.00 55 1009.6
20260505024619 59 134 0.0 1.7 0.00 0.00 0.00 54 1009.7
20260505024615 59 158 0.0 1.7 0.00 0.00 0.00 55 1009.6
20260505023615 59 130 0.0 0.9 0.00 0.00 0.00 54 1009.7
20260505023120 59 88 0.0 2.6 0.00 0.00 0.00 53 1009.7
20260505023116 59 268 0.0 0.0 0.00 0.00 0.00 54 1009.7
20260505022719 59 136 0.0 2.6 0.00 0.00 0.00 53 1009.6
20260505021614 59 196 0.0 0.0 0.00 0.00 0.00 53 1009.7
20260505021113 59 140 0.0 0.0 0.00 0.00 0.00 52 1009.7
20260505020613 59 124 0.0 0.9 0.00 0.00 0.00 52 1009.6
20260505020113 59 146 0.0 0.9 0.00 0.00 0.00 52 1009.7
20260505015613 60 104 0.0 0.0 0.00 0.00 0.00 52 1009.6
20260505015117 60 103 0.0 0.9 0.00 0.00 0.00 51 1009.6
20260505015113 60 131 0.0 0.0 0.00 0.00 0.00 51 1009.7
20260505014114 60 133 0.0 0.9 0.00 0.00 0.00 50 1009.5
20260505013613 60 83 0.0 0.9 0.00 0.00 0.00 50 1009.4
20260505013114 61 131 0.0 0.9 0.00 0.00 0.00 50 1009.4
20260505012612 61 281 0.0 0.0 0.00 0.00 0.00 49 1009.3
20260505012116 61 224 0.0 0.9 0.00 0.00 0.00 49 1009.0
20260505012112 61 136 0.0 0.0 0.00 0.00 0.00 49 1009.1
20260505011715 61 140 0.0 0.9 0.00 0.00 0.00 48 1009.0
20260505010611 61 104 0.0 1.7 0.00 0.00 0.00 48 1008.8
20260505010110 61 135 0.0 1.7 0.00 0.00 0.00 48 1008.8
20260505005611 61 131 0.0 0.0 0.00 0.00 0.00 49 1008.7
20260505005115 61 105 0.0 0.0 0.00 0.00 0.00 50 1008.6
20260505005111 61 230 0.0 0.0 0.00 0.00 0.00 49 1008.6
20260505004111 61 288 0.0 2.6 0.00 0.00 0.00 50 1008.6
20260505003610 61 103 0.0 2.6 0.00 0.00 0.00 50 1008.4
20260505003113 62 109 0.0 0.0 0.00 0.00 0.00 49 1008.1
20260505003108 61 141 0.0 0.0 0.00 0.00 0.00 50 1008.2
20260505002109 62 277 0.0 2.6 0.00 0.00 0.00 49 1007.9
20260505001609 62 76 0.0 2.6 0.00 0.00 0.00 49 1007.7
20260505001109 63 74 0.0 4.3 0.00 0.00 0.00 48 1007.7
20260505000609 64 125 0.0 4.3 0.00 0.00 0.00 46 1007.6
20260505000106 64 121 0.0 2.6 0.00 0.00 0.00 44 1007.4
20260504235611 65 117 0.0 0.9 0.00 0.00 0.00 44 1007.2
20260504235607 64 113 0.0 2.6 0.00 0.00 0.00 45 1007.3
20260504234610 65 207 0.0 2.6 0.00 0.00 0.00 44 1007.0
20260504234606 65 235 0.0 2.6 0.00 0.00 0.00 43 1007.2
20260504233607 65 23 0.0 0.9 0.00 0.00 0.00 44 1007.1
20260504233106 65 142 0.0 0.0 0.00 0.00 0.00 45 1007.0
20260504232606 66 145 0.0 0.0 0.00 0.00 0.00 43 1006.9
20260504232110 67 215 0.0 8.7 0.00 0.00 0.00 40 1006.4
20260504232106 66 131 0.0 4.3 0.00 0.00 0.00 41 1006.8
20260504231707 66 98 0.0 8.7 0.00 0.00 0.00 40 1006.6
20260504230602 67 179 0.0 3.5 0.00 0.00 0.00 39 1006.3
20260504225603 68 50 0.0 1.7 0.00 0.00 0.00 38 1006.3
20260504225102 68 128 0.0 0.0 0.00 0.00 0.00 37 1006.0
20260504224603 69 145 0.0 0.0 0.00 0.00 0.00 37 1006.0
20260504224103 69 277 0.0 0.0 0.00 0.00 0.00 36 1005.9
20260504223602 69 227 0.0 0.0 0.00 0.00 0.00 35 1005.8
20260504223103 70 255 0.0 0.0 0.00 0.00 0.00 35 1005.8
20260504222603 70 117 0.0 0.9 0.00 0.00 0.00 34 1005.6
20260504222101 71 148 0.0 0.9 0.00 0.00 0.00 30 1005.8
20260504221604 72 108 0.0 0.0 0.00 0.00 0.00 29 1005.6
20260504221600 71 161 0.0 0.0 0.00 0.00 0.00 30 1005.6
20260504220603 73 301 0.0 0.0 0.00 0.00 0.00 29 1005.6
20260504220559 72 77 0.0 0.0 0.00 0.00 0.00 29 1005.7
20260504215558 73 101 0.0 0.0 0.00 0.00 0.00 28 1005.6
20260504215059 74 218 0.0 0.0 0.00 0.00 0.00 28 1005.6
20260504214557 74 108 0.0 0.0 0.00 0.00 0.00 28 1005.8
20260504214056 73 311 0.0 4.3 0.00 0.00 0.00 28 1005.7
20260504213557 73 271 0.0 5.2 0.00 0.00 0.00 27 1005.6
20260504213055 74 284 0.0 5.2 0.00 0.00 0.00 27 1005.6
20260504212555 74 134 0.0 0.0 0.00 0.00 0.00 27 1005.6
20260504212055 74 132 0.0 0.0 0.00 0.00 0.00 27 1005.8
20260504211552 74 137 0.0 0.0 0.00 0.00 0.00 27 1005.6
20260504211052 74 290 0.0 0.9 0.00 0.00 0.00 26 1005.8
20260504210552 74 237 0.0 0.9 0.00 0.00 0.00 27 1005.6
20260504210050 74 260 0.0 0.9 0.00 0.00 0.00 27 1005.7
20260504205550 74 240 0.0 0.0 0.00 0.00 0.00 27 1005.7
20260504205049 73 344 0.0 6.1 0.00 0.00 0.00 27 1005.6
20260504204548 73 307 0.0 6.1 0.00 0.00 0.00 26 1005.8
20260504204052 74 227 0.0 5.2 0.00 0.00 0.00 26 1005.8
20260504204048 74 224 0.0 1.7 0.00 0.00 0.00 26 1005.9
20260504203048 74 265 0.0 5.2 0.00 0.00 0.00 25 1005.7
20260504202549 74 285 0.0 3.5 0.00 0.00 0.00 25 1005.8
20260504202050 74 94 0.0 6.1 0.00 0.00 0.00 25 1005.9
20260504201548 74 303 0.0 6.1 0.00 0.00 0.00 26 1005.9
20260504201048 74 291 0.0 6.1 0.00 0.00 0.00 25 1005.9
20260504200553 74 248 0.0 1.7 0.00 0.00 0.00 26 1005.8
20260504200549 74 246 0.0 6.1 0.00 0.00 0.00 25 1006.1
20260504195553 74 155 0.0 4.3 0.00 0.00 0.00 24 1006.0
20260504195549 74 227 0.0 2.6 0.00 0.00 0.00 25 1006.0
20260504194548 75 317 0.0 4.3 0.00 0.00 0.00 24 1006.1
20260504194052 73 226 0.0 8.7 0.00 0.00 0.00 25 1006.1
20260504194048 74 258 0.0 5.2 0.00 0.00 0.00 25 1005.9
20260504193654 73 345 0.0 8.7 0.00 0.00 0.00 26 1006.0
20260504192550 73 163 0.0 0.0 0.00 0.00 0.00 25 1006.0
20260504192048 73 324 0.0 2.6 0.00 0.00 0.00 25 1006.1
20260504191548 73 277 0.0 5.2 0.00 0.00 0.00 25 1006.2
20260504191053 72 278 0.0 2.6 0.00 0.00 0.00 26 1006.2
20260504191049 73 333 0.0 5.2 0.00 0.00 0.00 25 1006.1
20260504190048 72 98 0.0 0.9 0.00 0.00 0.00 25 1006.3
20260504185547 72 298 0.0 7.0 0.00 0.00 0.00 26 1006.2
20260504185045 72 242 0.0 11.3 0.00 0.00 0.00 26 1006.3
20260504184544 72 271 0.0 11.3 0.00 0.00 0.00 26 1006.2
20260504184045 72 277 0.0 2.6 0.00 0.00 0.00 26 1006.2
20260504183542 72 194 0.0 2.6 0.00 0.00 0.00 26 1006.3
20260504183046 72 271 0.0 2.6 0.00 0.00 0.00 26 1006.4
20260504183042 72 277 0.0 2.6 0.00 0.00 0.00 26 1006.3
20260504182648 72 126 0.0 10.4 0.00 0.00 0.00 27 1006.2
20260504181541 72 126 0.0 10.4 0.00 0.00 0.00 26 1006.4
20260504181040 72 330 0.0 7.8 0.00 0.00 0.00 27 1006.5
20260504180540 72 279 0.0 5.2 0.00 0.00 0.00 26 1006.7
20260504180042 72 307 0.9 19.1 0.00 0.00 0.00 27 1006.5
20260504175540 71 36 0.9 19.1 0.00 0.00 0.00 27 1006.6
20260504175040 71 195 0.0 1.7 0.00 0.00 0.00 27 1006.8
20260504174541 71 154 0.0 3.5 0.00 0.00 0.00 26 1006.6
20260504174040 71 141 0.0 3.5 0.00 0.00 0.00 28 1006.6
20260504173540 71 259 0.0 3.5 0.00 0.00 0.00 28 1006.8
20260504173039 71 152 0.0 2.6 0.00 0.00 0.00 28 1006.7
20260504172538 71 145 0.0 6.1 0.00 0.00 0.00 27 1006.8
20260504172038 70 169 0.0 10.4 0.00 0.00 0.00 28 1006.9
20260504171536 70 260 0.0 10.4 0.00 0.00 0.00 28 1006.7
20260504171036 70 141 0.0 2.6 0.00 0.00 0.00 29 1006.6
20260504170536 70 322 0.0 2.6 0.00 0.00 0.00 29 1006.7
20260504150632 67 27 0.0 10.4 0.00 0.00 0.00 33 1008.3
20260504141030 63 255 0.0 7.8 0.00 0.00 0.00 36 1008.7
20260504141026 64 146 0.0 0.0 0.00 0.00 0.00 37 1008.7